When you browse on this site, cookies collect data to enhance your experience and personalize the content and advertising you see.
Visit our Privacy Policy to learn more. By continuing to use the site, you agree to this use of cookies and data.

Hourly Weather Dublin

Today, 24 September, Thursday

Time Temperature Precipitation Wind Pressure Humidity
00:00 +5°C° 0 mm 3 mps 729 mmHg 87%
01:00 +5°C° 0.7 mm 3 mps 728 mmHg 89%
02:00 +5°C° 0.7 mm 4 mps 727 mmHg 91%
03:00 +5°C° 0.7 mm 4 mps 726 mmHg 92%
04:00 +6°C° 1.1 mm 4 mps 725 mmHg 93%
05:00 +6°C° 1.1 mm 4 mps 724 mmHg 94%
06:00 +6°C° 0 mm 5 mps 724 mmHg 94%
07:00 +6°C° 0.2 mm 4 mps 724 mmHg 94%
08:00 +6°C° 0.2 mm 4 mps 724 mmHg 94%
09:00 +6°C° 0.2 mm 4 mps 724 mmHg 93%
10:00 +8°C° 0.2 mm 3 mps 724 mmHg 90%
11:00 +9°C° 0.2 mm 2 mps 725 mmHg 87%
12:00 +9°C° 0 mm 2 mps 725 mmHg 83%
13:00 +10°C° 0.2 mm 3 mps 726 mmHg 82%
14:00 +10°C° 0.2 mm 3 mps 726 mmHg 81%
15:00 +10°C° 0.2 mm 4 mps 727 mmHg 79%
16:00 +8°C° 0.2 mm 5 mps 728 mmHg 82%
17:00 +7°C° 0.2 mm 6 mps 729 mmHg 86%
18:00 +6°C° 0.2 mm 7 mps 729 mmHg 89%
19:00 +5°C° 0.2 mm 8 mps 731 mmHg 89%
20:00 +5°C° 0.2 mm 8 mps 732 mmHg 89%
21:00 +4°C° 0.2 mm 8 mps 733 mmHg 90%
22:00 +4°C° 0.1 mm 7 mps 734 mmHg 90%
23:00 +3°C° 0.1 mm 7 mps 735 mmHg 90%

Tomorrow, 25 September, Friday

Time Temperature Precipitation Wind Pressure Humidity
00:00 +3°C° 0.1 mm 6 mps 735 mmHg 91%
01:00 +2°C° 0 mm 6 mps 736 mmHg 92%
02:00 +2°C° 0 mm 6 mps 737 mmHg 92%
03:00 +2°C° 0 mm 5 mps 738 mmHg 93%
04:00 +2°C° 0 mm 5 mps 738 mmHg 93%
05:00 +1°C° 0 mm 5 mps 739 mmHg 94%
06:00 +1°C° 0 mm 5 mps 740 mmHg 94%
07:00 +3°C° 0 mm 6 mps 741 mmHg 91%
08:00 +4°C° 0 mm 6 mps 741 mmHg 88%
09:00 +6°C° 0 mm 7 mps 742 mmHg 86%
10:00 +8°C° 0.1 mm 7 mps 743 mmHg 82%
11:00 +9°C° 0.1 mm 7 mps 743 mmHg 79%
12:00 +10°C° 0.1 mm 8 mps 744 mmHg 76%
13:00 +10°C° 0.3 mm 8 mps 744 mmHg 74%
14:00 +10°C° 0.3 mm 8 mps 745 mmHg 73%
15:00 +10°C° 0.3 mm 8 mps 745 mmHg 71%
16:00 +9°C° 0 mm 8 mps 745 mmHg 73%
17:00 +8°C° 0 mm 7 mps 745 mmHg 76%
18:00 +5°C° 0 mm 6 mps 746 mmHg 78%
19:00 +4°C° 0 mm 6 mps 746 mmHg 82%
20:00 +3°C° 0 mm 5 mps 746 mmHg 86%
21:00 +2°C° 0 mm 5 mps 747 mmHg 90%
22:00 +2°C° 0 mm 5 mps 747 mmHg 91%
23:00 +1°C° 0 mm 4 mps 747 mmHg 92%

Day after tomorrow, 26 September, Saturday

Time Temperature Precipitation Wind Pressure Humidity
00:00 0°C° 0 mm 4 mps 747 mmHg 93%
01:00 0°C° 0 mm 4 mps 747 mmHg 93%
02:00 0°C° 0 mm 4 mps 747 mmHg 93%
03:00 0°C° 0 mm 4 mps 747 mmHg 93%
04:00 -1°C° 0 mm 4 mps 747 mmHg 93%
05:00 -1°C° 0 mm 4 mps 746 mmHg 93%
06:00 0°C° 0 mm 3 mps 746 mmHg 93%
07:00 +1°C° 0 mm 4 mps 747 mmHg 88%
08:00 +4°C° 0 mm 4 mps 747 mmHg 84%
09:00 +5°C° 0 mm 4 mps 747 mmHg 79%
10:00 +7°C° 0 mm 4 mps 747 mmHg 75%
11:00 +8°C° 0 mm 4 mps 747 mmHg 71%
12:00 +9°C° 0 mm 5 mps 747 mmHg 67%
13:00 +10°C° 0 mm 5 mps 748 mmHg 66%
14:00 +10°C° 0 mm 5 mps 748 mmHg 65%
15:00 +10°C° 0 mm 5 mps 748 mmHg 65%
16:00 +10°C° 0 mm 4 mps 748 mmHg 70%
17:00 +7°C° 0 mm 4 mps 748 mmHg 75%
18:00 +7°C° 0 mm 3 mps 748 mmHg 79%
19:00 +5°C° 0 mm 3 mps 748 mmHg 81%
20:00 +5°C° 0 mm 2 mps 748 mmHg 83%
21:00 +4°C° 0 mm 2 mps 748 mmHg 85%
22:00 +4°C° 0 mm 2 mps 748 mmHg 86%
23:00 +4°C° 0 mm 2 mps 748 mmHg 86%

27 September, Sunday

Time Temperature Precipitation Wind Pressure Humidity
00:00 +3°C° 0 mm 2 mps 748 mmHg 87%
01:00 +3°C° 0 mm 2 mps 748 mmHg 87%
02:00 +3°C° 0 mm 2 mps 748 mmHg 87%
03:00 +3°C° 0 mm 2 mps 747 mmHg 88%
04:00 +2°C° 0 mm 2 mps 747 mmHg 88%
05:00 +2°C° 0 mm 2 mps 747 mmHg 89%
06:00 +2°C° 0 mm 2 mps 747 mmHg 89%
07:00 +4°C° 0 mm 2 mps 747 mmHg 84%
08:00 +6°C° 0 mm 2 mps 747 mmHg 79%
09:00 +7°C° 0 mm 2 mps 747 mmHg 73%
10:00 +10°C° 0 mm 1 mps 747 mmHg 68%
11:00 +11°C° 0 mm 1 mps 747 mmHg 62%
12:00 +12°C° 0 mm 1 mps 747 mmHg 56%
13:00 +12°C° 0 mm 2 mps 746 mmHg 58%
14:00 +13°C° 0 mm 2 mps 746 mmHg 60%
15:00 +12°C° 0 mm 3 mps 746 mmHg 61%
16:00 +11°C° 0 mm 3 mps 745 mmHg 67%
17:00 +10°C° 0 mm 3 mps 745 mmHg 72%
18:00 +9°C° 0 mm 3 mps 744 mmHg 77%
19:00 +9°C° 0 mm 3 mps 744 mmHg 78%
20:00 +9°C° 0 mm 3 mps 744 mmHg 79%
21:00 +10°C° 0 mm 3 mps 744 mmHg 79%
22:00 +10°C° 0.2 mm 3 mps 744 mmHg 84%
23:00 +10°C° 0.2 mm 3 mps 743 mmHg 88%

28 September, Monday

Time Temperature Precipitation Wind Pressure Humidity
00:00 +10°C° 0.2 mm 3 mps 743 mmHg 93%
01:00 +11°C° 0.5 mm 4 mps 742 mmHg 94%
02:00 +11°C° 0.5 mm 4 mps 742 mmHg 95%
03:00 +12°C° 0.5 mm 5 mps 741 mmHg 97%
04:00 +12°C° 0.4 mm 5 mps 741 mmHg 97%
05:00 +13°C° 0.4 mm 5 mps 741 mmHg 97%
06:00 +13°C° 0.4 mm 5 mps 741 mmHg 97%
07:00 +14°C° 0.1 mm 5 mps 741 mmHg 95%
08:00 +14°C° 0.1 mm 5 mps 741 mmHg 94%
09:00 +15°C° 0.1 mm 5 mps 741 mmHg 92%
10:00 +15°C° 0.3 mm 5 mps 741 mmHg 90%
11:00 +14°C° 0.3 mm 4 mps 741 mmHg 87%
12:00 +14°C° 0.3 mm 4 mps 741 mmHg 84%
13:00 +14°C° 0.1 mm 4 mps 741 mmHg 79%
14:00 +15°C° 0.1 mm 5 mps 741 mmHg 74%
15:00 +15°C° 0.1 mm 5 mps 741 mmHg 69%
16:00 +13°C° 0 mm 5 mps 741 mmHg 75%
17:00 +12°C° 0 mm 4 mps 742 mmHg 80%
18:00 +10°C° 0 mm 4 mps 742 mmHg 86%
19:00 +8°C° 0 mm 4 mps 743 mmHg 88%
20:00 +7°C° 0 mm 4 mps 743 mmHg 91%
21:00 +6°C° 0 mm 4 mps 743 mmHg 93%
22:00 +7°C° 0 mm 3 mps 744 mmHg 94%
23:00 +7°C° 0 mm 3 mps 744 mmHg 94%

29 September, Tuesday

Time Temperature Precipitation Wind Pressure Humidity
00:00 +5°C° 0 mm 3 mps 744 mmHg 95%
01:00 +5°C° 0 mm 3 mps 744 mmHg 94%
02:00 +6°C° 0 mm 2 mps 744 mmHg 94%
03:00 +6°C° 0 mm 2 mps 744 mmHg 94%
04:00 +5°C° 0 mm 2 mps 744 mmHg 94%
05:00 +5°C° 0 mm 2 mps 744 mmHg 94%
06:00 +5°C° 0 mm 2 mps 744 mmHg 93%
07:00 +7°C° 0 mm 2 mps 744 mmHg 89%
08:00 +8°C° 0 mm 2 mps 744 mmHg 86%
09:00 +10°C° 0 mm 2 mps 744 mmHg 82%
10:00 +12°C° 0 mm 2 mps 744 mmHg 76%
11:00 +13°C° 0 mm 2 mps 744 mmHg 70%
12:00 +13°C° 0 mm 3 mps 744 mmHg 64%
13:00 +13°C° 0.1 mm 3 mps 743 mmHg 66%
14:00 +13°C° 0.1 mm 4 mps 743 mmHg 68%
15:00 +13°C° 0.1 mm 4 mps 743 mmHg 69%
16:00 +12°C° 0.1 mm 4 mps 742 mmHg 75%
17:00 +11°C° 0.1 mm 4 mps 742 mmHg 81%
18:00 +10°C° 0.1 mm 3 mps 742 mmHg 87%
19:00 +9°C° 0 mm 3 mps 742 mmHg 88%
20:00 +9°C° 0 mm 3 mps 741 mmHg 89%
21:00 +9°C° 0 mm 3 mps 741 mmHg 90%
22:00 +8°C° 0 mm 3 mps 741 mmHg 91%
23:00 +8°C° 0 mm 3 mps 740 mmHg 92%
Show more